Stations météo

réclame
Mon MeteoGroup
Niort, France (7330): Température de l'air & dewpoint: 12.06.2018 03:00:00 - 18.06.2018 03:00:00 (CEST)Niort, France (7330): Température de l'air 5cm: 12.06.2018 03:00:00 - 18.06.2018 03:00:00 (CEST)Niort, France (7330): Température de l'air -20cm & Température de l'air -100cm: 12.06.2018 03:00:00 - 18.06.2018 03:00:00 (CEST)Niort, France (7330): Vitesse du vent & gusts: 12.06.2018 03:00:00 - 18.06.2018 03:00:00 (CEST)Niort, France (7330): Direction du vent: 12.06.2018 03:00:00 - 18.06.2018 03:00:00 (CEST)Niort, France (7330): reduced air pressure: 12.06.2018 03:00:00 - 18.06.2018 03:00:00 (CEST)Niort, France (7330): visibility: 12.06.2018 03:00:00 - 18.06.2018 03:00:00 (CEST)Niort, France (7330): Ensoleillement: 12.06.2018 03:00:00 - 18.06.2018 03:00:00 (CEST)Niort, France (7330): Quantités de précipitations: 12.06.2018 03:00:00 - 18.06.2018 03:00:00 (CEST)
Date & Time tt [°C] td [°C] tt 5cm [°C] tt -20cm [°C] tt -100cm [°C] ff [km/h] ff [knt] fx [km/h] fx [knt] dd ppp [hPa] vv [km] sd [min] rr [mm]
18.06.2018 03:00:00 15,3 14,7 15,0 19,8 18,2 6 4 19 11 SW 1024,5 3,4 0 0,4
18.06.2018 02:00:00 16,1 13,4 15,7 19,8 18,2 6 3 13 7 SW 1024,7 20 0 0,0
18.06.2018 01:00:00 16,0 13,3 15,6 19,8 18,2 8 4 12 7 SW 1024,8 20 0 0,0
18.06.2018 00:00:00 15,9 13,0 15,0 19,8 18,2 9 5 16 8 SW 1025,0 20 0 0,0
17.06.2018 23:00:00 15,8 12,2 15,0 19,8 18,2 13 7 24 13 WSW 1024,9 20 0 0,0
17.06.2018 22:00:00 16,3 11,9 15,4 19,8 18,2 14 8 29 16 W 1024,3 20 0 0,0
17.06.2018 21:00:00 17,5 11,3 17,4 19,8 18,2 18 10 35 19 W 1024,2 20 17 0,0
17.06.2018 20:00:00 18,6 11,4 19,5 19,8 18,2 17 9 31 17 WSW 1023,7 20 48 0,0
17.06.2018 19:00:00 19,9 11,6 22,5 19,8 18,2 21 11 36 19 WSW 1023,5 20 56 0,0
17.06.2018 18:00:00 21,0 12,7 23,3 19,8 18,2 17 9 33 18 W 1023,2 20 51 0,0
17.06.2018 17:00:00 21,1 12,0 21,7 19,8 18,2 22 12 36 20 W 1023,3 20 47 0,0
17.06.2018 16:00:00 21,3 12,2 22,3 19,8 18,2 16 9 31 17 WSW 1023,1 20 49 0,0
17.06.2018 15:00:00 20,6 11,8 22,1 19,8 18,2 20 11 33 18 SW 1023,2 20 38 0,0
17.06.2018 14:00:00 19,8 11,3 21,8 19,8 18,2 18 10 27 15 WSW 1023,2 20 18 0,0
17.06.2018 13:00:00 19,4 11,2 20,7 19,8 18,1 16 9 29 16 WSW 1023,3 20 26 0,0
17.06.2018 12:00:00 18,7 10,8 21,3 19,8 18,2 13 7 35 19 W 1023,5 20 38 0,0
17.06.2018 11:00:00 18,1 9,7 19,0 19,8 18,2 8 4 18 10 WNW 1023,6 20 41 0,0
17.06.2018 10:00:00 17,3 9,7 18,0 19,8 18,1 5 3 18 10 WNW 1023,4 20 45 0,0
17.06.2018 09:00:00 15,9 10,6 15,9 19,8 18,2 8 4 14 8 NW 1023,3 20 16 0,0
17.06.2018 08:00:00 15,2 11,4 15,0 19,8 18,1 10 5 15 8 NW 1022,7 20 15 0,0
17.06.2018 07:00:00 15,0 13,4 14,2 19,8 18,2 8 4 11 6 NW 1022,3 20 0 0,0
17.06.2018 06:00:00 15,0 13,5 14,6 19,8 18,2 7 4 11 6 SW 1021,8 20 0 0,0
17.06.2018 05:00:00 14,9 13,6 13,9 19,8 18,1 4 2 8 4 S 1021,4 20 0 0,0
17.06.2018 04:00:00 14,6 13,1 13,6 19,8 18,2 2 1 8 4 SW 1021,5 20 0 0,0
17.06.2018 03:00:00 14,8 13,3 13,2 19,8 18,1 6 3 11 6 SW 1021,5 20 0 0,0
17.06.2018 02:00:00 15,1 13,0 14,6 19,7 18,1 7 4 9 5 SW 1021,5 20 0 0,0
17.06.2018 01:00:00 15,1 13,0 13,9 19,7 18,1 6 3 17 9 SW 1021,7 20 0 0,0
17.06.2018 00:00:00 15,2 12,3 14,3 19,7 18,1 6 4 25 13 WSW 1021,5 20 0 0,0
16.06.2018 23:00:00 16,6 12,3 16,0 19,7 18,1 11 6 22 12 W 1021,5 20 0 0,0
16.06.2018 22:00:00 16,8 11,7 16,2 19,8 18,1 15 8 27 14 W 1020,8 20 23 0,0
16.06.2018 21:00:00 17,8 12,3 17,9 19,7 18,1 15 8 24 13 W 1020,5 20 19 0,0
16.06.2018 20:00:00 18,3 10,9 18,7 19,7 18,1 21 11 33 18 W 1020,2 20 9 0,0
16.06.2018 19:00:00 19,3 11,3 20,3 19,7 18,1 19 10 39 21 W 1019,8 20 41 0,0
16.06.2018 18:00:00 20,6 12,8 21,8 19,7 18,1 20 11 34 18 W 1019,3 20 22 0,0
16.06.2018 17:00:00 21,3 13,2 23,0 19,7 18,2 22 12 35 19 W 1019,0 20 47 0,0
16.06.2018 16:00:00 21,8 12,9 24,1 19,7 18,1 20 11 36 20 WSW 1018,9 20 56 0,0
16.06.2018 15:00:00 21,2 13,9 22,2 19,8 18,1 17 9 30 16 WSW 1018,8 20 5 0,0
16.06.2018 14:00:00 20,4 12,1 23,9 19,8 18,1 10 6 26 14 WNW 1018,8 20 11 0,0
16.06.2018 13:00:00 20,7 12,4 24,2 19,8 18,1 11 6 22 12 WNW 1019,2 20 52 0,0
16.06.2018 12:00:00 19,0 12,7 21,9 19,8 18,1 9 5 18 10 WNW 1019,2 20 9 0,0
16.06.2018 11:00:00 18,1 12,8 18,6 19,7 18,1 5 3 16 8 W 1018,9 20 16 0,0
16.06.2018 10:00:00 16,4 13,7 17,5 19,8 18,1 5 3 11 6 NW 1019,0 17 10 0,0
16.06.2018 09:00:00 15,2 13,0 15,4 19,7 18,1 3 2 9 5 WNW 1018,5 18 38 0,0
16.06.2018 08:00:00 13,9 12,8 13,3 19,7 18,1 4 2 8 4 WSW 1018,1 13 45 0,0
16.06.2018 07:00:00 13,2 12,4 12,1 19,7 18,1 4 2 9 5 SSE 1017,8 14 2 0,0
16.06.2018 06:00:00 13,2 12,3 12,5 19,7 18,1 6 3 10 5 ESE 1017,4 14 0 0,0
16.06.2018 05:00:00 14,2 13,1 13,3 19,7 18,1 6 3 12 6 SE 1017,5 16 0 0,0
16.06.2018 04:00:00 14,1 12,8 13,1 19,7 18,1 4 2 8 4 ENE 1018,0 13 0 0,0
16.06.2018 03:00:00 14,4 13,3 13,5 19,7 18,1 5 3 11 6 SSE 1018,2 16 0 0,0
16.06.2018 02:00:00 14,6 13,0 13,6 19,7 18,1 7 4 10 6 SSE 1018,2 18 0 0,0
16.06.2018 01:00:00 15,9 13,2 15,3 19,7 18,1 7 4 12 6 SSE 1018,3 20 0 0,0
16.06.2018 00:00:00 16,3 13,0 15,2 19,7 18,1 8 4 14 8 SW 1018,2 20 0 0,0
15.06.2018 23:00:00 16,5 13,0 15,6 19,7 18,1 10 5 18 10 SW 1018,1 20 0 0,0
15.06.2018 22:00:00 17,4 13,7 16,5 19,7 18,1 9 5 15 8 SW 1018,0 20 0 0,0
15.06.2018 21:00:00 18,6 14,1 18,4 19,7 18,1 11 6 24 13 WSW 1017,7 20 32 0,0
15.06.2018 20:00:00 21,6 15,4 22,4 19,7 18,1 14 8 24 13 W 1017,4 20 31 0,0
15.06.2018 19:00:00 21,7 15,1 23,0 19,7 18,1 14 8 29 16 WSW 1017,4 20 40 0,0
15.06.2018 18:00:00 23,1 16,2 24,5 19,7 18,1 13 7 22 12 W 1017,3 20 40 0,0
15.06.2018 17:00:00 22,6 15,4 24,6 19,7 18,1 14 7 27 15 W 1017,6 20 27 0,0
15.06.2018 16:00:00 21,6 16,3 22,3 19,7 18,1 10 5 20 11 N 1017,9 20 21 0,0
15.06.2018 15:00:00 20,4 16,2 21,9 19,7 18,1 12 7 22 12 NW 1017,9 20 12 0,0
15.06.2018 14:00:00 19,8 16,6 20,8 19,7 18,1 13 7 26 14 NW 1018,1 20 18 0,0
15.06.2018 13:00:00 19,3 16,7 19,9 19,8 18,1 14 7 19 10 W 1018,1 20 0 0,0
15.06.2018 12:00:00 18,1 17,1 18,4 19,7 18,1 11 6 17 9 WNW 1018,1 6 0 1,8
15.06.2018 11:00:00 17,6 17,0 18,1 19,8 18,0 9 5 13 7 SW 1018,0 2,5 0 0,6
15.06.2018 10:00:00 17,3 16,8 17,5 19,8 18,0 7 4 12 6 S 1018,1 3,3 0 0,2
15.06.2018 09:00:00 16,8 16,5 16,7 19,8 18,0 7 4 11 6 S 1017,9 3,6 0 0,4
15.06.2018 08:00:00 16,4 16,1 16,3 19,8 18,0 8 4 11 6 S 1017,7 2,2 0 0,4
15.06.2018 07:00:00 16,2 15,9 15,9 19,8 18,0 5 3 9 5 S 1017,6 1,4 0 0,4
15.06.2018 06:00:00 16,0 15,7 15,7 19,7 18,0 5 3 9 5 S 1017,6 1,9 0 0,2
15.06.2018 05:00:00 15,8 15,5 15,5 19,8 18,0 6 3 10 5 S 1017,7 11 0 0,8
15.06.2018 04:00:00 15,7 15,2 15,5 19,8 18,0 6 4 12 6 SSW 1018,0 5 0 2,1
15.06.2018 03:00:00 15,8 15,3 15,5 19,8 18,0 5 3 7 4 S 1018,5 4,6 0 3,4
15.06.2018 02:00:00 15,9 15,3 15,5 19,8 18,0 5 3 6 4 S 1018,8 4,0 0 8,5
15.06.2018 01:00:00 16,1 15,0 15,6 19,8 18,0 0 0 4 2 N 1019,2 4,3 0 3,4
15.06.2018 00:00:00 16,4 14,9 15,8 19,8 18,0 3 2 10 6 NE 1019,6 11 0 0,2
14.06.2018 23:00:00 16,8 14,3 16,1 19,8 18,0 9 5 19 11 WNW 1019,4 11 0 0,0
14.06.2018 22:00:00 17,4 13,1 17,0 19,8 18,0 10 5 23 13 W 1018,9 20 0 0,0
14.06.2018 21:00:00 18,0 12,9 18,0 19,8 18,0 13 7 24 13 W 1019,0 20 10 0,0
14.06.2018 20:00:00 18,5 12,5 19,0 19,8 18,0 19 10 28 15 W 1018,9 20 0 0,0
14.06.2018 19:00:00 18,7 12,7 19,6 19,8 18,0 19 10 29 16 WSW 1018,8 20 0 0,0
14.06.2018 18:00:00 19,2 13,6 20,5 19,8 18,0 20 11 30 16 WSW 1018,8 20 0 0,0
14.06.2018 17:00:00 19,3 12,6 20,5 19,8 18,0 16 9 29 16 W 1018,8 20 0 0,0
14.06.2018 16:00:00 20,0 12,5 23,2 19,8 18,0 17 9 27 15 WSW 1018,9 20 17 0,0
14.06.2018 15:00:00 19,8 11,8 21,9 19,8 18,0 17 9 34 18 W 1019,2 20 25 0,0
14.06.2018 14:00:00 20,0 12,5 21,0 19,9 18,0 15 8 26 14 WSW 1019,2 20 13 0,0
14.06.2018 13:00:00 18,7 12,9 19,9 19,9 18,0 10 6 24 13 WNW 1019,6 20 0 0,0
14.06.2018 12:00:00 18,0 12,2 20,3 19,9 18,0 15 8 25 14 W 1019,3 20 1 0,0
14.06.2018 11:00:00 17,7 12,6 19,2 19,9 18,0 12 7 26 14 W 1019,4 20 0 0,0
14.06.2018 10:00:00 16,7 12,8 17,6 19,8 18,0 11 6 26 14 WNW 1019,2 20 3 0,0
14.06.2018 09:00:00 15,8 13,3 16,9 19,9 17,9 11 6 16 9 WNW 1019,1 20 29 0,0
14.06.2018 08:00:00 14,3 13,8 10,9 19,8 18,0 5 3 10 6 WSW 1019,0 10 57 0,0
14.06.2018 07:00:00 12,3 11,8 8,0 19,9 18,0 0 0 4 2 N 1018,9 3,5 4 0,0
14.06.2018 06:00:00 11,2 10,1 8,1 19,8 18,0 0 0 6 3 N 1018,7 11 0 0,0
14.06.2018 05:00:00 11,5 10,4 8,7 19,8 18,0 0 0 3 2 N 1018,8 14 0 0,0
14.06.2018 04:00:00 12,3 10,9 9,5 19,8 18,0 2 1 5 3 NNE 1019,0 20 0 0,0
14.06.2018 03:00:00 13,2 11,8 11,0 19,8 18,0 3 2 8 4 N 1019,2 20 0 0,0
14.06.2018 02:00:00 13,6 12,2 11,8 19,8 18,0 7 4 10 5 E 1019,5 20 0 0,0
14.06.2018 01:00:00 14,4 11,9 11,5 19,8 17,9 0 0 9 5 N 1019,8 20 0 0,0
14.06.2018 00:00:00 14,8 12,1 11,5 19,8 18,0 4 2 5 3 ESE 1019,6 20 0 0,0
13.06.2018 23:00:00 16,1 12,3 12,6 19,8 18,0 3 2 8 5 E 1019,4 20 0 0,0
13.06.2018 22:00:00 17,7 13,0 14,1 19,7 17,9 4 2 11 6 E 1019,1 19 24 0,0
13.06.2018 21:00:00 19,7 12,7 20,1 19,7 17,9 8 4 16 9 ENE 1018,6 20 58 0,0
13.06.2018 20:00:00 21,1 12,0 22,4 19,7 17,9 10 6 23 12 N 1018,4 20 56 0,0
13.06.2018 19:00:00 21,9 12,4 21,3 19,8 18,0 10 5 23 13 N 1018,3 20 38 0,0
13.06.2018 18:00:00 21,5 11,5 22,5 19,8 17,9 16 8 28 15 N 1018,5 20 26 0,0
13.06.2018 17:00:00 21,5 11,8 23,0 19,8 17,9 14 7 29 16 N 1018,7 20 30 0,0
13.06.2018 16:00:00 21,6 11,6 22,2 19,8 17,9 14 8 29 16 N 1019,0 20 28 0,0
13.06.2018 15:00:00 21,0 11,1 21,8 19,8 17,9 13 7 26 14 N 1019,4 20 17 0,0
13.06.2018 14:00:00 21,0 11,6 22,3 19,8 17,9 5 3 23 12 NW 1019,6 20 40 0,0
13.06.2018 13:00:00 20,7 11,9 22,5 19,8 17,9 10 5 23 12 N 1019,6 20 58 0,0
13.06.2018 12:00:00 19,6 11,9 19,8 19,8 17,9 12 6 24 13 NNE 1019,7 20 53 0,0
13.06.2018 11:00:00 18,1 12,1 18,4 19,8 17,9 11 6 21 11 N 1019,4 20 43 0,0
13.06.2018 10:00:00 16,9 12,4 17,0 19,8 17,9 10 6 20 11 NE 1019,3 15 31 0,0
13.06.2018 09:00:00 15,6 12,7 15,8 19,8 17,9 11 6 26 14 NE 1019,1 13 0 0,0
13.06.2018 08:00:00 15,3 13,5 15,2 19,8 17,9 13 7 24 13 NE 1018,7 7 2 0,0
13.06.2018 07:00:00 15,1 13,5 14,6 19,8 17,9 10 5 23 13 NNE 1018,4 6 0 0,0
13.06.2018 06:00:00 15,0 13,7 14,3 19,8 17,9 12 6 21 11 NNE 1018,1 5 0 0,0
13.06.2018 05:00:00 14,8 13,5 13,9 19,8 17,9 11 6 19 11 NNE 1018,0 6 0 0,0
13.06.2018 04:00:00 15,2 13,9 13,3 19,8 17,9 10 5 16 9 N 1017,6 6 0 0,0
13.06.2018 03:00:00 15,2 13,7 13,2 19,8 17,9 5 3 9 5 NNW 1017,3 10 0 0,0
13.06.2018 02:00:00 16,5 13,6 15,2 19,8 17,9 4 2 11 6 NNW 1017,1 20 0 0,0
13.06.2018 01:00:00 16,9 13,4 15,7 19,8 17,9 5 3 13 7 NNW 1016,7 20 0 0,0
13.06.2018 00:00:00 17,5 13,6 16,9 19,8 17,9 8 5 21 11 N 1016,4 20 0 0,0
12.06.2018 23:00:00 18,0 14,1 17,6 19,8 17,9 12 6 22 12 N 1016,0 20 0 0,0
12.06.2018 22:00:00 18,3 14,0 17,8 19,8 17,8 15 8 29 16 NNE 1015,0 20 9 0,0
12.06.2018 21:00:00 18,8 13,6 18,6 19,8 17,8 19 10 39 21 NNE 1014,1 20 35 0,0
12.06.2018 20:00:00 20,3 14,4 20,4 19,8 17,8 17 9 32 18 N 1013,0 20 49 0,0
12.06.2018 19:00:00 20,8 15,3 20,9 19,8 17,8 22 12 34 19 NNE 1012,4 20 5 0,0
12.06.2018 18:00:00 21,6 15,0 21,8 19,8 17,8 18 10 27 14 N 1012,2 20 37 0,0
12.06.2018 17:00:00 21,7 15,3 23,4 19,8 17,8 12 7 24 13 NNW 1012,1 20 31 0,0
12.06.2018 16:00:00 21,2 15,5 21,7 19,8 17,8 13 7 25 14 NNW 1012,1 20 18 0,0
12.06.2018 15:00:00 20,7 15,9 17,7 19,8 17,8 6 3 14 8 NW 1012,1 20 17 0,8
12.06.2018 14:00:00 17,4 15,9 17,2 19,9 17,8 9 5 39 21 SE 1012,3 13 0 1,8
12.06.2018 13:00:00 20,5 13,7 22,9 19,8 17,8 5 3 11 6 NNE 1011,8 20 9 0,0
12.06.2018 12:00:00 20,4 15,4 22,4 19,9 17,8 3 1 9 5 WSW 1011,4 20 4 0,0
12.06.2018 11:00:00 19,5 14,9 21,2 19,9 17,8 4 2 13 7 SW 1010,9 20 26 0,0
12.06.2018 10:00:00 17,9 14,8 19,0 19,9 17,8 5 3 15 8 SSE 1010,8 20 17 0,0
12.06.2018 09:00:00 16,6 14,6 17,2 19,9 17,8 8 5 20 11 ESE 1010,4 20 0 0,0
12.06.2018 08:00:00 15,9 14,6 15,7 19,9 17,8 10 5 22 12 SE 1010,1 19 0 0,0
12.06.2018 07:00:00 15,6 14,6 15,1 19,9 17,8 13 7 19 10 SE 1009,7 19 0 0,0
12.06.2018 06:00:00 15,3 14,5 14,4 19,9 17,7 10 5 17 9 SE 1009,3 18 0 0,0
12.06.2018 05:00:00 15,0 14,2 14,5 19,9 17,7 9 5 16 9 SE 1009,4 20 0 0,0
12.06.2018 04:00:00 15,4 14,4 15,0 19,9 17,7 10 6 22 12 SSE 1009,9 20 0 0,0
12.06.2018 03:00:00 15,4 14,6 14,8 19,9 17,7 10 5 17 9 SE 1010,0 16 0 0,0

tt = Température de l'air
td = dewpoint
tt 5cm = Température de l'air 5cm
tt -20cm = Température de l'air -20cm
tt -100cm = Température de l'air -100cm
ff = Vitesse du vent
fx = gusts
dd = Direction du vent
ppp = reduced air pressure
vv = visibility
sd = Ensoleillement
rr = Quantités de précipitations

stations d'obs. à proximité